| time (UTC) | temp F | wind direction | speed knots | gust knots | rain 1hr in | rain 24hr in | rain mn in | humidity % | barometer mb |
| 20260510210505 | 46 | 150 | 6.1 | 6.1 | 0.00 | 0.00 | 0.00 | 56 | 1014.9 |
| 20260510210004 | 46 | 150 | 6.1 | 6.1 | 0.00 | 0.00 | 0.00 | 56 | 1014.9 |
| 20260510205504 | 48 | 120 | 4.3 | 4.3 | 0.00 | 0.00 | 0.00 | 53 | 1014.9 |
| 20260510204504 | 48 | 120 | 4.3 | 4.3 | 0.00 | 0.00 | 0.00 | 53 | 1014.9 |
| 20260510203504 | 48 | 120 | 4.3 | 4.3 | 0.00 | 0.00 | 0.00 | 53 | 1014.9 |
| 20260510202007 | 48 | 120 | 4.3 | 4.3 | 0.00 | 0.00 | 0.00 | 53 | 1014.9 |
| 20260510201504 | 48 | 120 | 4.3 | 4.3 | 0.00 | 0.00 | 0.00 | 53 | 1014.9 |
| 20260510201007 | 48 | 120 | 4.3 | 4.3 | 0.00 | 0.00 | 0.00 | 53 | 1014.9 |
| 20260510200005 | 48 | 120 | 4.3 | 6.1 | 0.00 | 0.00 | 0.00 | 53 | 1014.9 |
| 20260510193007 | 50 | 100 | 6.1 | 6.1 | 0.00 | 0.00 | 0.00 | 49 | 1014.9 |
| 20260510192503 | 50 | 100 | 6.1 | 6.1 | 0.00 | 0.00 | 0.00 | 49 | 1014.9 |
| 20260510192007 | 50 | 100 | 6.1 | 6.1 | 0.00 | 0.00 | 0.00 | 49 | 1014.9 |
| 20260510191504 | 50 | 100 | 6.1 | 6.1 | 0.00 | 0.00 | 0.00 | 49 | 1014.9 |
| 20260510190504 | 50 | 100 | 6.1 | 7.0 | 0.00 | 0.00 | 0.00 | 49 | 1014.9 |
| 20260510190005 | 50 | 100 | 6.1 | 7.0 | 0.00 | 0.00 | 0.00 | 49 | 1014.9 |
| 20260510185503 | 52 | 50 | 7.0 | 7.0 | 0.00 | 0.00 | 0.00 | 46 | 1015.9 |
| 20260510185006 | 52 | 50 | 7.0 | 7.0 | 0.00 | 0.00 | 0.00 | 46 | 1015.9 |
| 20260510184007 | 52 | 50 | 7.0 | 7.0 | 0.00 | 0.00 | 0.00 | 46 | 1015.9 |
| 20260510182504 | 52 | 50 | 7.0 | 7.0 | 0.00 | 0.00 | 0.00 | 46 | 1015.9 |
| 20260510181007 | 52 | 50 | 7.0 | 7.0 | 0.00 | 0.00 | 0.00 | 46 | 1015.9 |
| 20260510180505 | 52 | 50 | 7.0 | 10.4 | 0.00 | 0.00 | 0.00 | 46 | 1015.9 |
| 20260510174006 | 54 | 80 | 10.4 | 10.4 | 0.00 | 0.00 | 0.00 | 43 | 1015.9 |
| 20260510173007 | 54 | 80 | 10.4 | 10.4 | 0.00 | 0.00 | 0.00 | 43 | 1015.9 |
| 20260510171504 | 54 | 80 | 10.4 | 10.4 | 0.00 | 0.00 | 0.00 | 43 | 1015.9 |
| 20260510171007 | 54 | 80 | 10.4 | 10.4 | 0.00 | 0.00 | 0.00 | 43 | 1015.9 |
| 20260510170004 | 54 | 80 | 10.4 | 10.4 | 0.00 | 0.00 | 0.00 | 43 | 1015.9 |
| 20260510163505 | 57 | 40 | 7.8 | 7.8 | 0.00 | 0.00 | 0.00 | 38 | 1016.9 |
| 20260510162504 | 57 | 40 | 7.8 | 7.8 | 0.00 | 0.00 | 0.00 | 38 | 1016.9 |
| 20260510161007 | 57 | 40 | 7.8 | 7.8 | 0.00 | 0.00 | 0.00 | 38 | 1016.9 |
| 20260510160004 | 57 | 40 | 7.8 | 10.4 | 0.00 | 0.00 | 0.00 | 38 | 1016.9 |
| 20260510154504 | 55 | 40 | 10.4 | 10.4 | 0.00 | 0.00 | 0.00 | 40 | 1017.9 |
| 20260510153008 | 55 | 40 | 10.4 | 10.4 | 0.00 | 0.00 | 0.00 | 40 | 1017.9 |
| 20260510152505 | 55 | 40 | 10.4 | 10.4 | 0.00 | 0.00 | 0.00 | 40 | 1017.9 |
| 20260510152007 | 55 | 40 | 10.4 | 10.4 | 0.00 | 0.00 | 0.00 | 40 | 1017.9 |
| 20260510151007 | 55 | 40 | 10.4 | 10.4 | 0.00 | 0.00 | 0.00 | 40 | 1017.9 |
| 20260510150503 | 55 | 40 | 10.4 | 24.3 | 0.00 | 0.00 | 0.00 | 40 | 1017.9 |
| 20260510150004 | 55 | 40 | 10.4 | 24.3 | 0.00 | 0.00 | 0.00 | 40 | 1017.9 |
| 20260510145503 | 55 | 40 | 11.3 | 24.3 | 0.00 | 0.00 | 0.00 | 40 | 1017.9 |
| 20260510145006 | 55 | 40 | 11.3 | 24.3 | 0.00 | 0.00 | 0.00 | 40 | 1017.9 |
| 20260510143505 | 55 | 40 | 11.3 | 24.3 | 0.00 | 0.00 | 0.00 | 40 | 1017.9 |
| 20260510142008 | 55 | 40 | 11.3 | 24.3 | 0.00 | 0.00 | 0.00 | 40 | 1017.9 |
| 20260510141503 | 55 | 40 | 11.3 | 24.3 | 0.00 | 0.00 | 0.00 | 40 | 1017.9 |
| 20260510141006 | 55 | 40 | 11.3 | 24.3 | 0.00 | 0.00 | 0.00 | 40 | 1017.9 |
| 20260510140504 | 55 | 40 | 11.3 | 24.3 | 0.00 | 0.00 | 0.00 | 40 | 1017.9 |
| 20260510135007 | 55 | 40 | 10.4 | 10.4 | 0.00 | 0.00 | 0.00 | 43 | 1019.0 |
| 20260510134007 | 55 | 40 | 10.4 | 10.4 | 0.00 | 0.00 | 0.00 | 43 | 1019.0 |
| 20260510130503 | 55 | 40 | 10.4 | 12.2 | 0.00 | 0.00 | 0.00 | 43 | 1019.0 |
| 20260510125504 | 55 | 60 | 12.2 | 12.2 | 0.00 | 0.00 | 0.00 | 43 | 1019.0 |
| 20260510125007 | 55 | 60 | 12.2 | 12.2 | 0.00 | 0.00 | 0.00 | 43 | 1019.0 |
| 20260510123007 | 55 | 60 | 12.2 | 12.2 | 0.00 | 0.00 | 0.00 | 43 | 1019.0 |
| 20260510113008 | 52 | 30 | 11.3 | 11.3 | 0.00 | 0.00 | 0.00 | 53 | 1020.0 |
| 20260510111504 | 52 | 30 | 11.3 | 11.3 | 0.00 | 0.00 | 0.00 | 53 | 1020.0 |
| 20260510105504 | 52 | 50 | 13.0 | 13.0 | 0.00 | 0.00 | 0.00 | 53 | 1020.0 |
| 20260510103504 | 52 | 50 | 13.0 | 13.0 | 0.00 | 0.00 | 0.00 | 53 | 1020.0 |
| 20260510103006 | 52 | 50 | 13.0 | 13.0 | 0.00 | 0.00 | 0.00 | 53 | 1020.0 |
| 20260510095007 | 48 | 30 | 11.3 | 11.3 | 0.00 | 0.00 | 0.00 | 66 | 1021.0 |
| 20260510094504 | 48 | 30 | 11.3 | 11.3 | 0.00 | 0.00 | 0.00 | 66 | 1021.0 |
| 20260510092504 | 48 | 30 | 11.3 | 11.3 | 0.00 | 0.00 | 0.00 | 66 | 1021.0 |
| 20260510090004 | 48 | 30 | 11.3 | 12.2 | 0.00 | 0.00 | 0.00 | 66 | 1021.0 |
| 20260510085007 | 46 | 30 | 12.2 | 12.2 | 0.00 | 0.00 | 0.00 | 75 | 1021.0 |
| 20260510084007 | 46 | 30 | 12.2 | 12.2 | 0.00 | 0.00 | 0.00 | 75 | 1021.0 |
| 20260510082503 | 46 | 30 | 12.2 | 12.2 | 0.00 | 0.00 | 0.00 | 75 | 1021.0 |
| 20260510082008 | 46 | 30 | 12.2 | 12.2 | 0.00 | 0.00 | 0.00 | 75 | 1021.0 |
| 20260510080504 | 46 | 30 | 12.2 | 12.2 | 0.00 | 0.00 | 0.00 | 75 | 1021.0 |
| 20260510073007 | 46 | 40 | 12.2 | 12.2 | 0.00 | 0.00 | 0.00 | 75 | 1021.0 |
| 20260510070504 | 46 | 40 | 12.2 | 12.2 | 0.00 | 0.00 | 0.00 | 75 | 1021.0 |
| 20260510063504 | 50 | 20 | 11.3 | 11.3 | 0.00 | 0.00 | 0.00 | 87 | 1020.0 |
| 20260510063007 | 50 | 20 | 11.3 | 11.3 | 0.00 | 0.00 | 0.00 | 87 | 1020.0 |
| 20260510060504 | 50 | 20 | 11.3 | 11.3 | 0.00 | 0.00 | 0.00 | 87 | 1020.0 |